Weather History for KTUS - July, 2014

Change the Weather History Date:

Thursday, July 31, 2014

  Actual Average Record
Temperature  
Mean Temperature 90 °F 86 °F  
Max Temperature 98 °F 98 °F 111 °F (1986)
Min Temperature 82 °F 74 °F 66 °F (1955)
Degree Days  
Heating Degree Days 0 0  
Month to date heating degree days 0 0  
Since 1 June heating degree days 0 0  
Since 1 July heating degree days 0 0  
Cooling Degree Days 25 21  
Month to date cooling degree days 730 683  
Year to date cooling degree days 2058 1779  
Since 1 June cooling degree days 1455 1277  
Growing Degree Days 40 (Base 50)    
Moisture  
Dew Point 56 °F    
Average Humidity 35    
Maximum Humidity 47    
Minimum Humidity 22    
Precipitation  
Precipitation 0.00 in 0.10 in 1.90 in (2006)
Month to date precipitation 1.43 2.25  
Year to date precipitation 2.04 5.52  
Sea Level Pressure  
Sea Level Pressure 29.88 in    
Wind  
Wind Speed 8 mph (South)    
Max Wind Speed 21 mph    
Max Gust Speed 25 mph    
Visibility 10 miles    
Events      
T = Trace of Precipitation, MM = Missing Value Source: NWS Daily Summary

Daily Weather History Graph

Daily Weather History Graph

Search for Another Location

Airport or City:

Trip Planner

Search our weather history database for the weather conditions in past years. The results will help you decide how hot, cold, wet, or windy it might be!

Date:

Astronomy

Jul. 31, 2014 Rise Set
Actual Time 5:38 AM MST 7:21 PM MST
Civil Twilight 5:11 AM MST 7:48 PM MST
Nautical Twilight 4:39 AM MST 8:20 PM MST
Astronomical Twilight 4:05 AM MST 8:54 PM MST
Moon 9:50 AM MST (7/31) 9:56 PM MST (7/31)
Length of Visible Light 14h 36m
Length of Day
13h 43m
Waxing Crescent, 20% of the Moon is Illuminated
Jul 31
Waxing Crescent
Aug 3
First Quarter
Aug 10
Full
Aug 17
Last Quarter
Aug 25
New

Hourly Weather History & Observations

Time (MST) Temp. Heat Index Dew Point Humidity Pressure Visibility Wind Dir Wind Speed Gust Speed Precip Events Conditions
12:53 AM 84.0 °F 83.0 °F 55.9 °F 38% 29.83 in 10.0 mi SSE 9.2 mph - N/A   Clear
1:53 AM 82.9 °F 82.6 °F 57.9 °F 42% 29.85 in 10.0 mi SSE 12.7 mph - N/A   Clear
2:53 AM 82.9 °F 82.6 °F 57.9 °F 42% 29.85 in 10.0 mi SSE 8.1 mph - N/A   Partly Cloudy
3:53 AM 82.9 °F 82.6 °F 57.9 °F 42% 29.86 in 10.0 mi South 11.5 mph - N/A   Mostly Cloudy
4:53 AM 84.0 °F 83.3 °F 57.0 °F 40% 29.87 in 10.0 mi SSW 8.1 mph - N/A   Mostly Cloudy
5:53 AM 82.9 °F 82.8 °F 59.0 °F 44% 29.88 in 10.0 mi East 5.8 mph - N/A   Scattered Clouds
6:53 AM 82.0 °F 82.4 °F 60.1 °F 47% 29.91 in 10.0 mi SE 15.0 mph - N/A   Clear
7:53 AM 84.9 °F 84.2 °F 57.9 °F 40% 29.92 in 10.0 mi SSE 16.1 mph - N/A   Scattered Clouds
8:53 AM 88.0 °F 86.5 °F 55.9 °F 34% 29.94 in 10.0 mi SSE 11.5 mph - N/A   Mostly Cloudy
9:53 AM 89.1 °F 88.0 °F 57.9 °F 35% 29.93 in 10.0 mi SSW 11.5 mph 20.7 mph N/A   Mostly Cloudy
10:53 AM 93.0 °F 90.8 °F 54.0 °F 27% 29.91 in 10.0 mi SSE 5.8 mph - N/A   Clear
11:53 AM 95.0 °F 92.5 °F 53.1 °F 24% 29.89 in 10.0 mi NW 4.6 mph - N/A   Clear
12:53 PM 97.0 °F - 52.0 °F 22% 29.87 in 10.0 mi West 9.2 mph - N/A   Clear
1:53 PM 98.1 °F 95.7 °F 53.1 °F 22% 29.86 in 10.0 mi Variable 5.8 mph - N/A   Clear
2:53 PM 96.8 °F 95.1 °F 55.4 °F 25% 30.01 in 10.0 mi NE 18.4 mph 23.0 mph N/A   Partly Cloudy
3:03 PM 93.9 °F 91.7 °F 54.0 °F 26% 30.00 in 10.0 mi NE 16.1 mph - N/A   Partly Cloudy
3:53 PM 93.9 °F 91.4 °F 53.1 °F 25% 29.81 in 10.0 mi NE 8.1 mph - N/A   Clear
4:53 PM 95.0 °F - 52.0 °F 23% 29.79 in 10.0 mi WSW 3.5 mph - N/A   Clear
5:53 PM 95.0 °F 92.5 °F 53.1 °F 24% 29.79 in 10.0 mi WSW 5.8 mph - N/A   Clear
6:53 PM 93.2 °F 90.8 °F 53.6 °F 26% 29.96 in 10.0 mi WNW 5.8 mph - N/A   Clear
7:53 PM 93.0 °F 90.8 °F 54.0 °F 27% 29.81 in 10.0 mi North 3.5 mph - N/A   Clear
8:53 PM 91.9 °F 89.5 °F 54.0 °F 27% 29.84 in 10.0 mi Calm Calm - N/A   Clear
9:53 PM 89.6 °F 88.9 °F 59.0 °F 36% 30.00 in 10.0 mi South 9.2 mph - N/A   Clear
10:53 PM 88.0 °F 87.6 °F 60.1 °F 39% 29.83 in 10.0 mi SSW 6.9 mph - N/A   Clear
11:53 PM 88.0 °F 86.7 °F 57.0 °F 35% 29.84 in 10.0 mi Calm Calm - N/A   Clear